[[{"header":{"parameterUnit":"m.s-1","parameterCategory":1,"la1":30.2991,"la2":30.254,"lo1":-89.0895,"lo2":-89.0444,"dy":0.0017,"dx":0.0017,"nx":28,"ny":28,"refTime":"2025-05-29T21:00:00:Z","depth":0,"parameterNumber":2,"parameterNumberName":"U-component_of_WINDS"},"data":[0,0,0,0,0,0,0,0,0,0,0,0,0,0,0,0,0,0,0,0,0,0,0,0,0,0,0,0,0,0,0,0,0,0,0,0,0,0,0,0,0,0,0,0,0,0,0,0,0,0,0,0,0,0,0,0,0,0,4.018,4.0181,0,4.0285,4.0286,4.0288,4.0198,4.0194,4.019,4.0187,4.0295,4.0301,4.0307,0,0,0,0,0,0,0,0,0,0,0,0,0,3.99,3.9905,4.018,4.0181,4.0183,4.0285,4.0286,4.0288,4.0198,4.0194,4.0189,4.0185,4.0293,4.03,4.0308,0,0,0,0,0,0,0,0,0,0,0,0,0,4.0015,3.9907,4.018,4.015,4.0149,4.0285,4.0287,4.0288,4.0199,4.0194,4.0188,4.0183,4.029,4.03,4.0309,4.048,0,0,4.0338,4.0342,0,0,0,0,0,0,0,0,4.0009,4.0025,4.0153,4.0153,4.0151,4.0223,4.0227,4.0353,4.0201,4.018,4.0187,4.018,4.0276,4.0286,4.0318,4.0485,4.0489,4.0339,4.0345,4.0349,4.0352,0,0,0,0,0,0,0,4.0001,4.002,4.0222,4.0155,4.0154,4.0131,4.0141,4.0251,4.0258,4.0182,4.0175,4.0189,4.0274,4.0309,4.032,4.0491,4.0339,4.0347,4.0353,4.0357,4.0798,4.0804,0,0,0,0,0,0,3.9996,4.0014,4.0218,4.0225,4.0065,4.0141,4.0152,4.0205,4.0256,4.0259,4.0194,4.0184,4.0295,4.0309,4.0323,4.0522,4.0349,4.0358,4.0363,4.0792,4.0799,4.0806,0,0,0,0,0,0,3.999,4.0015,4.0214,4.0118,4.0141,4.0152,4.0212,4.021,4.0245,4.0266,4.0266,4.0228,4.0292,4.031,4.044,4.0525,4.0362,4.0371,4.0785,4.0794,4.0803,4.0924,0,0,0,0,0,0,3.9982,4.0013,4.0079,4.012,4.0147,4.033,4.0217,4.0216,4.0262,4.0251,4.0298,4.0301,4.0289,4.0427,4.045,4.0535,4.0378,4.0777,4.0789,4.08,4.0912,4.0936,4.0956,0,0,0,0,0,3.9973,4.011,4.0083,4.0108,4.0229,4.0335,4.0351,4.0334,4.0269,4.0334,4.0347,4.0299,4.0513,4.0441,4.0466,4.0555,4.0772,4.0786,4.0799,4.0902,4.0931,4.0956,0,0,0,0,0,0,4.008,4.0115,4.0085,4.024,4.0285,4.032,4.0402,4.0366,4.043,4.0417,4.0394,4.0405,4.0541,4.0562,4.0481,4.0721,4.0632,4.0651,4.0702,4.0729,4.0751,4.0741,4.0386,0,0,0,0,0,4.0121,4.0205,4.0231,4.0365,4.0389,4.0392,4.0438,4.0421,4.0466,4.0485,4.0507,4.0554,4.063,4.0682,4.0754,4.0916,4.0923,4.099,4.1012,4.1029,4.1045,4.1127,4.1156,4.085,4.085,4.085,0,0,4.0208,4.0238,4.0292,4.0387,4.042,4.0506,4.0409,4.0505,4.0567,4.05,4.0623,4.0641,4.0691,4.0836,4.0902,4.0858,4.1131,4.1047,4.1061,4.1067,4.1144,4.1173,4.1199,4.0859,4.0858,4.0856,0,0,4.0408,4.0441,4.0554,4.0588,4.0639,4.0639,4.0667,4.0707,4.0716,4.0839,4.0789,4.0863,4.0998,4.1033,4.107,4.1281,4.1238,4.1306,4.1419,4.15,4.1523,4.1545,4.1616,4.1642,4.1322,4.1323,4.1323,0,4.0509,4.0636,4.0617,4.0715,4.0756,4.0699,4.0811,4.0846,4.0919,4.0948,4.0898,4.1062,4.1093,4.1243,4.1294,4.1328,4.1355,4.1299,4.1522,4.1543,4.1562,4.1629,4.1657,4.133,4.1329,4.1329,4.1328,0,4.0756,4.0845,4.093,4.0999,4.1051,4.1156,4.1151,4.1206,4.1184,4.1189,4.1313,4.1347,4.1423,4.1459,4.144,4.1606,4.1576,4.1525,4.1434,4.1599,4.1662,4.1688,4.1341,4.1338,4.1336,4.1334,0,0,4.1026,4.1081,4.1112,4.114,4.1191,4.1259,4.1361,4.1434,4.148,4.1532,4.1614,4.1728,4.1679,4.172,4.1704,4.1776,4.1935,4.1715,4.1715,4.1751,4.2116,4.2151,4.2181,4.1909,4.1914,4.1918,4.211,0,4.1224,4.14,4.1384,4.155,4.1629,4.1575,4.1663,4.1703,4.1711,4.1779,4.1787,4.1866,4.1799,4.1822,4.1891,4.1902,4.2008,4.1888,4.1982,4.1985,4.1966,4.2215,4.2253,4.2433,4.2135,4.2139,4.2142,0,4.1479,4.1538,4.1711,4.1746,4.1779,4.1858,4.1922,4.1989,4.2032,4.2032,4.2077,4.2048,4.2148,4.2058,4.2194,4.2112,4.215,4.2161,4.2168,4.2172,4.2071,4.2222,4.249,4.2515,4.2181,4.2178,4.2175,0,4.1652,4.1775,4.1893,4.192,4.1966,4.2022,4.2043,4.2081,4.2125,4.2181,4.2209,4.2277,4.2313,4.2366,4.2355,4.2291,4.2492,4.2402,4.2492,4.2492,4.2534,4.2531,4.2807,4.2566,4.2566,4.2565,4.2565,0,4.1873,4.1981,4.1971,4.2043,4.2161,4.2141,4.2258,4.2272,4.2306,4.2379,4.2338,4.2408,4.2391,4.246,4.2453,4.2563,4.2582,4.2582,4.2578,4.2583,4.2583,4.2605,4.259,4.2573,4.2571,4.257,4.2568,0,4.2085,4.2084,4.2208,4.224,4.2251,4.2335,4.2362,4.2429,4.2433,4.2526,4.2546,4.2552,4.263,4.2626,4.2715,4.271,4.2845,4.2829,4.2829,4.2824,4.2913,4.2903,4.321,4.3247,4.2986,4.2989,4.2991,0,4.2224,4.2305,4.2345,4.239,4.2415,4.249,4.2533,4.2517,4.2564,4.2618,4.2678,4.2752,4.281,4.2937,4.2948,4.3015,4.2997,4.3101,4.3007,4.3008,4.2993,4.2986,4.2992,4.3118,4.3121,4.3123,4.3125,0,4.2469,4.2464,4.2529,4.2593,4.2646,4.2696,4.2741,4.2781,4.2769,4.2824,4.2902,4.2947,4.3036,4.3109,4.3172,4.3193,4.3156,4.3155,4.3178,4.3182,4.3177,4.3176,4.2874,4.3147,4.3145,4.3143,4.3142,4.3141,4.2646,4.2713,4.275,4.2823,4.2855,4.2898,4.2961,4.2972,4.3037,4.3107,4.3094,4.3181,4.322,4.33,4.3327,4.3394,4.3357,4.3393,4.34,4.3408,4.3416,4.317,4.3406,4.3406,4.3405,4.3405,4.3404,0,4.2884,4.2905,4.2972,4.3036,4.3092,4.3053,4.3101,4.315,4.3227,4.3266,4.3323,4.3411,4.3481,4.3498,4.3564,4.3614,4.3598,4.3631,4.3625,4.363,4.3448,4.3418,4.3643,4.3642,4.3642,4.3642,4.3642,4.3642,4.3015,4.3125,4.3123,4.3248,4.3268,4.3352,4.3382,4.342,4.3451,4.3551,4.3608,4.3618,4.3647,4.3715,4.3776,4.3779,4.3804,4.3843,4.3838,4.3667,4.3643,4.362,4.3592,4.3849,4.3849,4.4014,4.4015,4.4017]},{"header":{"parameterUnit":"m.s-1","parameterCategory":1,"la1":30.2991,"la2":30.254,"lo1":-89.0895,"lo2":-89.0444,"dy":0.0017,"dx":0.0017,"nx":28,"ny":28,"refTime":"2025-05-29T21:00:00:Z","depth":0,"parameterNumber":3,"parameterNumberName":"V-component_of_WINDS"},"data":[0,0,0,0,0,0,0,0,0,0,0,0,0,0,0,0,0,0,0,0,0,0,0,0,0,0,0,0,0,0,0,0,0,0,0,0,0,0,0,0,0,0,0,0,0,0,0,0,0,0,0,0,0,0,0,0,0,0,1.9224,1.9225,0,1.9281,1.9281,1.9282,1.9257,1.9255,1.9254,1.9252,1.9308,1.9311,1.9314,0,0,0,0,0,0,0,0,0,0,0,0,0,1.9091,1.9093,1.9224,1.9225,1.9226,1.9281,1.9281,1.9282,1.9257,1.9255,1.9253,1.9252,1.9307,1.9311,1.9314,0,0,0,0,0,0,0,0,0,0,0,0,0,1.9148,1.9094,1.9224,1.922,1.922,1.9281,1.9282,1.9282,1.9257,1.9255,1.9253,1.9251,1.9306,1.931,1.9315,1.9382,0,0,1.9327,1.9329,0,0,0,0,0,0,0,0,1.9145,1.9153,1.922,1.922,1.922,1.926,1.9255,1.9316,1.9258,1.9243,1.9252,1.925,1.9294,1.9299,1.9314,1.9385,1.9387,1.9328,1.933,1.9332,1.9333,0,0,0,0,0,0,0,1.9141,1.915,1.9247,1.9221,1.9221,1.9214,1.9219,1.9266,1.9279,1.9244,1.9242,1.9249,1.9293,1.931,1.9315,1.9388,1.9328,1.9331,1.9334,1.9336,1.9515,1.9517,0,0,0,0,0,0,1.9137,1.9147,1.9245,1.9248,1.9177,1.9218,1.9224,1.9249,1.9279,1.9281,1.9251,1.9248,1.9304,1.931,1.9317,1.9397,1.9332,1.9336,1.9338,1.9513,1.9515,1.9518,0,0,0,0,0,0,1.9135,1.9146,1.9243,1.9197,1.9209,1.9222,1.925,1.9251,1.9268,1.9284,1.9286,1.9266,1.9302,1.9311,1.9366,1.9398,1.9338,1.9342,1.951,1.9513,1.9516,1.9557,0,0,0,0,0,0,1.9131,1.9146,1.9173,1.9198,1.9212,1.9292,1.9252,1.9254,1.9275,1.9272,1.9299,1.9301,1.9301,1.936,1.937,1.9403,1.9345,1.9507,1.9511,1.9515,1.9553,1.9562,1.9569,0,0,0,0,0,1.9126,1.9182,1.9174,1.9186,1.9246,1.9294,1.9301,1.9301,1.9278,1.9304,1.9314,1.93,1.9393,1.9366,1.9377,1.9412,1.9505,1.951,1.9515,1.955,1.956,1.9569,0,0,0,0,0,0,1.916,1.9186,1.9177,1.9243,1.9266,1.9289,1.9323,1.9313,1.9343,1.9338,1.9336,1.9343,1.9399,1.9411,1.938,1.9477,1.9445,1.9453,1.9468,1.9478,1.9485,1.9481,1.9348,0,0,0,0,0,1.9175,1.9213,1.9233,1.9289,1.9301,1.931,1.9331,1.9329,1.9353,1.9362,1.9377,1.94,1.9434,1.9456,1.9489,1.9555,1.9559,1.9584,1.9592,1.9598,1.9605,1.9638,1.9648,1.9534,1.9534,1.9534,0,0,1.9207,1.9225,1.9249,1.9296,1.9314,1.9352,1.9319,1.9361,1.9388,1.9369,1.9421,1.9432,1.9457,1.9517,1.9544,1.9529,1.9637,1.9605,1.961,1.9613,1.9644,1.9655,1.9664,1.9538,1.9537,1.9537,0,0,1.9284,1.9302,1.935,1.9368,1.9396,1.9401,1.9412,1.9436,1.9443,1.9495,1.9481,1.9513,1.9572,1.959,1.9607,1.9688,1.9675,1.9698,1.974,1.9772,1.9781,1.9789,1.9816,1.9826,1.9705,1.9705,1.9705,0,1.9319,1.9377,1.9376,1.9418,1.9438,1.9422,1.9469,1.9487,1.9523,1.9537,1.9519,1.9591,1.9608,1.967,1.969,1.9705,1.9716,1.9695,1.978,1.9788,1.9795,1.9821,1.9832,1.9707,1.9707,1.9707,1.9707,0,1.9418,1.9458,1.9493,1.9528,1.9552,1.9597,1.9601,1.9625,1.962,1.9627,1.9679,1.9697,1.9732,1.9747,1.9743,1.9809,1.9798,1.978,1.9748,1.9809,1.9833,1.9843,1.9711,1.971,1.9709,1.9709,0,0,1.9519,1.9552,1.9565,1.9579,1.9607,1.9637,1.968,1.9714,1.9734,1.9759,1.9794,1.9843,1.9826,1.9845,1.9843,1.9871,1.9932,1.985,1.985,1.9863,2.0003,2.0015,2.0027,1.9923,1.9925,1.9927,2.0,0,1.9597,1.9673,1.9672,1.9742,1.9777,1.9761,1.9798,1.9818,1.9824,1.9854,1.9861,1.9896,1.9872,1.9883,1.991,1.9919,1.9959,1.9913,1.9954,1.9955,1.9947,2.004,2.0054,2.0122,2.001,2.0011,2.0012,0,1.9698,1.9726,1.9799,1.982,1.9834,1.9868,1.9898,1.9927,1.9948,1.9951,1.9971,1.9964,2.0005,1.9972,2.0028,1.9996,2.0013,2.0019,2.0021,2.0025,1.9987,2.0044,2.0144,2.0154,2.0028,2.0026,2.0025,0,1.9763,1.9818,1.9869,1.9882,1.9907,1.9931,1.9942,1.9962,1.9982,2.0007,2.002,2.005,2.0066,2.0089,2.0089,2.0065,2.0145,2.0112,2.0147,2.0147,2.0164,2.0163,2.0267,2.0176,2.0176,2.0176,2.0176,0,1.9849,1.9894,1.9898,1.9929,1.9978,1.9975,2.0023,2.0032,2.0049,2.0081,2.0068,2.0098,2.0096,2.0125,2.0125,2.0171,2.0178,2.018,2.018,2.0181,2.0181,2.0191,2.0186,2.0179,2.0178,2.0178,2.0177,0,1.993,1.9934,1.9987,2.0006,2.0012,2.0047,2.0063,2.0091,2.0096,2.0135,2.0144,2.0152,2.0185,2.0187,2.0226,2.0226,2.028,2.0275,2.0273,2.0272,2.0306,2.0302,2.042,2.0435,2.0335,2.0336,2.0337,0,1.9984,2.0018,2.004,2.006,2.0073,2.0106,2.0126,2.0124,2.0144,2.017,2.0195,2.0227,2.0253,2.0307,2.0315,2.0343,2.0338,2.0377,2.0342,2.0342,2.0337,2.0334,2.0337,2.0384,2.0385,2.0386,2.0387,0,2.008,2.008,2.0109,2.0139,2.0162,2.0185,2.0207,2.0224,2.0224,2.0248,2.0282,2.0301,2.034,2.0372,2.0399,2.041,2.0398,2.0397,2.0407,2.0408,2.0405,2.0406,2.029,2.0395,2.0394,2.0393,2.0393,2.0392,2.0148,2.0177,2.0196,2.0228,2.0244,2.0264,2.0291,2.0298,2.0327,2.0359,2.0355,2.0392,2.041,2.0446,2.0459,2.0487,2.0473,2.0487,2.0491,2.0494,2.0497,2.0401,2.0492,2.0492,2.0492,2.0491,2.0491,0,2.0242,2.0253,2.0283,2.0313,2.0338,2.0324,2.0347,2.0368,2.0401,2.0419,2.0444,2.0482,2.0512,2.0521,2.055,2.057,2.0565,2.0578,2.0576,2.0578,2.0508,2.0497,2.0581,2.0581,2.0581,2.0581,2.0581,2.0581,2.0294,2.0341,2.0342,2.0396,2.0407,2.0443,2.0457,2.0474,2.0488,2.0531,2.0556,2.0562,2.0576,2.0605,2.0631,2.0633,2.0643,2.0658,2.0657,2.0592,2.0583,2.0574,2.0563,2.0661,2.0661,2.0725,2.0725,2.0726]}]]